Total_Precipitation_Accumulation
0.07 0.08 0.07 0.07 0.06 0.07 0.07 0.07 0.07 0.08 0.05 0.04 0.06 0.05 0.03 0.00 0.00 0.00 0.00 0.00 0.00 0.00 0.00 0.00 0.00 0.01 0.00 0.00 0.00 0.00 0.00 0.00 0.00 0.02 0.01 0.00 0.00 0.00 0.00 0.00 0.00 0.00 0.00 0.00 0.00 0.00 0.00
0.05 0.05 0.05 0.06 0.07 0.07 0.08 0.09 0.12 0.12 0.10 0.08 0.06 0.05 0.04 0.02 0.00 0.00 0.00 0.00 0.00 0.00 0.00 0.00 0.00 0.02 0.01 0.00 0.00 0.00 0.00 0.00 0.00 0.00 0.01 0.02 0.01 0.00 0.00 0.00 0.00 0.00 0.00 0.00 0.00 0.00 0.00
0.05 0.04 0.05 0.06 0.07 0.08 0.10 0.11 0.11 0.11 0.11 0.10 0.07 0.06 0.04 0.03 0.01 0.00 0.00 0.00 0.00 0.00 0.00 0.00 0.00 0.01 0.01 0.00 0.00 0.00 0.00 0.00 0.00 0.00 0.00 0.01 0.02 0.05 0.04 0.01 0.00 0.00 0.01 0.00 0.00 0.00 0.00
0.04 0.04 0.04 0.07 0.08 0.09 0.09 0.10 0.10 0.10 0.09 0.10 0.11 0.08 0.09 0.08 0.05 0.01 0.00 0.01 0.03 0.01 0.00 0.00 0.00 0.01 0.01 0.00 0.00 0.00 0.00 0.00 0.00 0.00 0.00 0.00 0.01 0.04 0.04 0.02 0.00 0.01 0.01 0.00 0.00 0.00 0.00
0.03 0.05 0.07 0.08 0.08 0.06 0.06 0.07 0.07 0.08 0.11 0.15 0.16 0.13 0.09 0.09 0.06 0.03 0.02 0.03 0.04 0.03 0.01 0.02 0.00 0.01 0.00 0.00 0.00 0.00 0.00 0.00 0.00 0.00 0.00 0.00 0.00 0.00 0.01 0.03 0.02 0.01 0.01 0.00 0.00 0.00 0.00
0.02 0.04 0.04 0.03 0.02 0.03 0.05 0.06 0.08 0.10 0.11 0.12 0.14 0.15 0.11 0.10 0.10 0.05 0.06 0.07 0.05 0.02 0.01 0.04 0.02 0.01 0.00 0.00 0.00 0.00 0.00 0.00 0.00 0.00 0.00 0.00 0.00 0.00 0.00 0.03 0.02 0.00 0.00 0.00 0.00 0.00 0.00
0.01 0.02 0.03 0.03 0.03 0.06 0.09 0.09 0.10 0.10 0.10 0.13 0.16 0.20 0.20 0.15 0.11 0.07 0.04 0.04 0.01 0.00 0.03 0.01 0.01 0.00 0.00 0.00 0.00 0.00 0.00 0.00 0.00 0.00 0.00 0.00 0.00 0.00 0.00 0.00 0.00 0.00 0.00 0.00 0.00 0.00 0.01
0.01 0.01 0.02 0.05 0.09 0.09 0.09 0.10 0.10 0.10 0.12 0.13 0.15 0.18 0.21 0.20 0.15 0.07 0.02 0.00 0.00 0.00 0.00 0.00 0.00 0.00 0.00 0.00 0.00 0.00 0.00 0.00 0.00 0.00 0.00 0.00 0.00 0.00 0.00 0.00 0.00 0.00 0.00 0.00 0.00 0.01 0.03
0.01 0.02 0.03 0.12 0.13 0.11 0.11 0.13 0.15 0.17 0.17 0.18 0.21 0.24 0.28 0.27 0.27 0.15 0.01 0.00 0.00 0.00 0.01 0.01 0.00 0.00 0.00 0.00 0.00 0.00 0.00 0.00 0.00 0.00 0.00 0.00 0.00 0.00 0.00 0.00 0.00 0.00 0.00 0.00 0.00 0.03 0.03
0.01 0.02 0.03 0.05 0.11 0.15 0.20 0.20 0.21 0.21 0.25 0.29 0.28 0.32 0.35 0.41 0.51 0.21 0.08 0.00 0.00 0.01 0.03 0.01 0.01 0.01 0.01 0.02 0.01 0.00 0.00 0.00 0.01 0.00 0.01 0.02 0.00 0.00 0.00 0.00 0.00 0.00 0.00 0.00 0.00 0.05 0.02
0.02 0.03 0.05 0.03 0.09 0.20 0.27 0.30 0.31 0.26 0.24 0.29 0.34 0.37 0.41 0.62 0.47 0.13 0.07 0.02 0.00 0.01 0.02 0.00 0.01 0.01 0.02 0.02 0.01 0.00 0.00 0.06 0.07 0.01 0.03 0.05 0.00 0.00 0.00 0.00 0.00 0.00 0.00 0.00 0.02 0.15 0.26
0.03 0.05 0.07 0.06 0.10 0.19 0.24 0.32 0.31 0.34 0.33 0.30 0.40 0.45 0.60 0.67 0.38 0.06 0.00 0.00 0.00 0.01 0.01 0.00 0.00 0.01 0.03 0.02 0.02 0.01 0.01 0.06 0.18 0.28 0.26 0.04 0.00 0.01 0.00 0.00 0.01 0.01 0.01 0.02 0.08 0.23 0.41
0.06 0.09 0.10 0.11 0.14 0.16 0.27 0.26 0.29 0.35 0.39 0.36 0.46 0.53 0.85 0.67 0.40 0.07 0.00 0.00 0.01 0.01 0.00 0.00 0.00 0.01 0.01 0.01 0.02 0.03 0.08 0.13 0.30 0.42 0.43 0.26 0.06 0.00 0.00 0.01 0.02 0.04 0.14 0.19 0.25 0.54 0.30
0.08 0.09 0.13 0.16 0.17 0.25 0.38 0.34 0.37 0.39 0.46 0.49 0.52 0.73 0.86 0.67 0.43 0.08 0.01 0.00 0.01 0.00 0.00 0.00 0.00 0.01 0.01 0.01 0.04 0.04 0.19 0.10 0.13 0.30 0.31 0.19 0.11 0.03 0.00 0.00 0.03 0.03 0.08 0.27 0.14 0.23 0.13
0.09 0.11 0.17 0.17 0.16 0.23 0.49 0.60 0.54 0.52 0.36 0.60 0.75 1.07 1.20 0.76 0.54 0.17 0.03 0.04 0.00 0.00 0.00 0.02 0.05 0.09 0.03 0.02 0.04 0.07 0.10 0.08 0.01 0.07 0.10 0.06 0.05 0.01 0.00 0.00 0.10 0.16 0.28 0.28 0.38 0.17 0.25
0.11 0.12 0.12 0.13 0.22 0.54 0.66 0.59 0.80 0.80 0.62 0.67 1.36 1.48 1.43 0.64 0.51 0.33 0.24 0.05 0.00 0.00 0.01 0.05 0.07 0.04 0.00 0.00 0.02 0.03 0.02 0.01 0.00 0.00 0.00 0.01 0.12 0.11 0.13 0.09 0.11 0.12 0.11 0.40 0.90 0.40 0.15
0.10 0.09 0.09 0.16 0.38 0.55 0.52 0.75 0.89 0.87 0.79 0.71 1.38 1.60 1.24 0.87 0.75 0.63 0.32 0.02 0.00 0.00 0.02 0.07 0.05 0.05 0.00 0.00 0.00 0.00 0.00 0.00 0.00 0.00 0.00 0.04 0.11 0.12 0.41 0.35 0.13 0.11 0.25 0.40 0.45 0.23 0.11
0.09 0.08 0.10 0.18 0.33 0.55 0.64 0.77 0.76 0.86 1.23 0.85 1.23 1.33 0.98 1.41 1.22 0.58 0.12 0.00 0.00 0.01 0.04 0.09 0.07 0.02 0.01 0.00 0.00 0.00 0.00 0.00 0.00 0.00 0.02 0.07 0.14 0.14 0.14 0.12 0.09 0.09 0.15 0.11 0.46 0.30 0.11
0.09 0.07 0.08 0.19 0.35 0.58 0.60 0.60 0.52 0.69 1.25 1.04 1.11 1.09 1.36 0.84 0.63 0.21 0.03 0.00 0.01 0.04 0.09 0.15 0.05 0.01 0.00 0.01 0.00 0.00 0.00 0.00 0.00 0.00 0.04 0.12 0.32 0.27 0.27 0.38 0.33 0.39 0.26 0.13 0.26 0.57 0.22
0.08 0.07 0.07 0.14 0.24 0.37 0.39 0.37 0.41 0.58 0.92 1.14 1.09 1.20 1.95 1.38 0.29 0.03 0.01 0.01 0.02 0.05 0.10 0.16 0.08 0.04 0.04 0.01 0.00 0.00 0.00 0.00 0.00 0.01 0.13 0.50 0.45 0.39 0.55 0.64 0.50 0.24 0.21 0.24 0.34 0.58 0.24
0.08 0.08 0.06 0.08 0.14 0.24 0.31 0.32 0.67 0.92 1.04 0.88 0.67 0.42 0.51 0.60 0.23 0.01 0.02 0.01 0.02 0.13 0.14 0.17 0.08 0.03 0.05 0.02 0.00 0.00 0.00 0.00 0.00 0.01 0.20 0.65 0.84 1.07 0.68 0.32 0.72 0.32 0.15 0.19 0.36 0.36 0.25
0.07 0.08 0.05 0.06 0.09 0.17 0.20 0.26 0.59 1.14 1.01 0.74 0.41 0.13 0.05 0.02 0.01 0.01 0.02 0.01 0.02 0.12 0.20 0.17 0.08 0.05 0.05 0.02 0.00 0.00 0.00 0.00 0.00 0.00 0.10 0.45 0.75 0.93 0.53 0.15 0.20 0.17 0.10 0.11 0.13 0.28 0.35
0.07 0.06 0.08 0.05 0.06 0.11 0.11 0.26 0.61 1.13 1.38 0.83 0.41 0.07 0.03 0.07 0.03 0.02 0.01 0.00 0.01 0.10 0.14 0.16 0.13 0.13 0.03 0.02 0.01 0.00 0.00 0.00 0.00 0.01 0.09 0.24 0.39 0.65 0.57 0.35 0.15 0.24 0.13 0.09 0.12 0.16 0.27
0.07 0.06 0.08 0.03 0.04 0.07 0.09 0.20 0.58 1.09 1.26 0.82 0.25 0.12 0.07 0.07 0.05 0.02 0.01 0.02 0.01 0.04 0.09 0.12 0.13 0.10 0.02 0.04 0.02 0.01 0.02 0.00 0.00 0.01 0.01 0.05 0.17 0.31 0.40 0.38 0.27 0.19 0.11 0.08 0.09 0.11 0.19
0.07 0.08 0.07 0.02 0.03 0.06 0.07 0.17 0.46 0.51 0.49 0.53 0.15 0.09 0.05 0.03 0.01 0.02 0.03 0.03 0.01 0.07 0.09 0.16 0.18 0.05 0.05 0.08 0.08 0.06 0.09 0.03 0.00 0.01 0.00 0.00 0.05 0.11 0.06 0.07 0.09 0.01 0.04 0.09 0.07 0.07 0.07
0.07 0.09 0.07 0.03 0.03 0.04 0.04 0.10 0.30 0.43 0.39 0.51 0.21 0.05 0.03 0.03 0.02 0.00 0.00 0.01 0.03 0.06 0.09 0.16 0.16 0.08 0.11 0.10 0.16 0.07 0.06 0.03 0.00 0.00 0.00 0.00 0.00 0.05 0.01 0.01 0.00 0.00 0.00 0.00 0.00 0.02 0.00
0.08 0.07 0.06 0.03 0.03 0.03 0.03 0.06 0.21 0.38 0.30 0.40 0.37 0.05 0.06 0.04 0.01 0.00 0.00 0.00 0.02 0.05 0.13 0.23 0.22 0.15 0.19 0.21 0.17 0.07 0.01 0.00 0.00 0.00 0.00 0.00 0.00 0.01 0.00 0.00 0.00 0.00 0.00 0.00 0.00 0.00 0.00
0.08 0.05 0.04 0.03 0.03 0.03 0.03 0.07 0.18 0.35 0.32 0.31 0.31 0.04 0.03 0.04 0.00 0.00 0.00 0.00 0.01 0.08 0.19 0.26 0.30 0.29 0.28 0.24 0.12 0.08 0.02 0.00 0.00 0.00 0.00 0.00 0.00 0.00 0.00 0.00 0.00 0.00 0.00 0.00 0.00 0.00 0.00
0.07 0.04 0.04 0.02 0.02 0.03 0.03 0.08 0.18 0.23 0.28 0.27 0.25 0.06 0.06 0.05 0.00 0.00 0.00 0.00 0.00 0.05 0.15 0.21 0.26 0.20 0.21 0.07 0.03 0.05 0.06 0.00 0.00 0.00 0.00 0.00 0.00 0.00 0.00 0.00 0.00 0.00 0.00 0.00 0.00 0.00 0.00